     2              OBSERVATION DATA    GPS                 RINEX VERSION / TYPE
teqc 1998Mar9 19980312 00:58:58UTC                          PGM / RUN BY / DATE
                                                            COMMENT
Original Marker Name: unknown                               COMMENT
Campaign Name: Cholame 1989                                 COMMENT
4-Character Station Name: REDH                              COMMENT
6-Character Antenna Code: TI4100                            COMMENT
Vertical Measurement Point: PAE                             COMMENT
Vertical Offset to Rinex Ref. Point: 0.0000                 COMMENT
Radial Measurement Point: PAE                               COMMENT
Radial Offset to Rinex Ref. Point: 0.0842                   COMMENT
Antenna Height from Field Measurement: 1.0750 m             COMMENT
Original XYZ: 0.0000 0.0000 0.0000                          COMMENT
New XYZ position is based on association with SCEC monument COMMENT
E1F1D7I9+0011. Position of that monument is believed to be  COMMENT
valid to within 1 m horizontally; vertical accuracy         COMMENT
should be no worse than 3-times this value.                 COMMENT
                                                            COMMENT
Revised Rinex header created by UCSD GPS archive for        COMMENT
GSAC on 28-May-1999 (1999:148) 21:53:55 GMT                 COMMENT
For assistance contact dagnew@ucsd.edu or hjohnson@ucsd.edu COMMENT
                                                            COMMENT
RED HILLS                                                   MARKER NAME
unknown UCLA                                                OBSERVER / AGENCY
UN03 TI 4100 1.9                                            REC # / TYPE / VERS
UN03 TI 4100                                                ANT # / TYPE
 -2616551.0000 -4484767.0000  3693080.0000                  APPROX POSITION XYZ
        1.0717        0.0000        0.0000                  ANTENNA: DELTA H/E/N
     1     1     0                                          WAVELENGTH FACT L1/2
     4    P1    P2    L1    L2                              # / TYPES OF OBSERV
     0                                                      INTERVAL
  1989    11    11    15    56   29.000000                  TIME OF FIRST OBS
  1989    11    11    17     4   59.000000                  TIME OF LAST OBS
     0                                                      # OF SATELLITES
                                                            END OF HEADER
 89 11 11 15 56 29.0800000  0  3G13G12G 3
  21745774.347    21745779.474    82519093.644 9-134363671.231 9
  21746338.096    21746344.598    40488111.947 9 -39184274.034 9
  21296193.250    21296198.380    35077224.068 9 -72733931.277 8
 89 11 11 15 56 59.0800000  0  3G13G12G 3
  21754885.439    21754891.594    82566973.305 9-134326362.552 8
  21762187.135    21762193.528    40571397.263 9 -39119376.544 9
  21292470.391    21292475.195    35057653.534 9 -72749181.126 9
 89 11 11 15 57 29.0800000  0  3G13G12G 3
  21764011.927    21764018.097    82614930.309 9-134288993.622 8
  21778114.466    21778121.532    40655099.230 9 -39054154.396 9
  21288780.823    21288785.765    35038263.048 9 -72764290.681 9
 89 11 11 15 57 59.0800000  0  3G13G12G 3
  21773152.555    21773158.795    82662964.247 9-134251564.721 7
  21794122.745    21794128.916    40739215.037 9 -38988609.796 9
  21285124.898    21285129.660    35019052.396 9 -72779260.111 9
 89 11 11 15 58 29.0800000  0  3G13G12G 3
  21782306.830    21782313.630    82711074.122 9-134214076.654 7
  21810207.686    21810213.278    40823741.969 9 -38922744.827 9
  21281503.802    21281507.077    35000020.847 9 -72794089.943 8
 89 11 11 15 58 59.0800000  0  3G13G12G 3
  21791476.705    21791481.973    82759258.729 9-134176530.342 8
  21826369.638    21826376.279    40908675.585 9 -38856562.968 9
  21277915.286    21277920.225    34981166.946 9 -72808781.373 8
 89 11 11 15 59 29.0800000  0  3G13G12G 3
  21800659.829    21800666.971    82807517.524 9-134138926.224 8
  21842609.037    21842615.216    40994013.300 9 -38790066.230 9
  21274361.058    21274365.611    34962490.349 9 -72823334.618 8
 89 11 11 15 59 59.0800000  0  3G13G12G 3
  21809857.491    21809863.701    82855850.264 9-134101264.476 7
  21858924.592    21858931.163    41079752.008 9 -38723257.026 8
  21270841.025    21270845.734    34943990.693 9 -72837749.984 9
 89 11 11 16  0 29.0800000  0  3G13G12G 3
  21819068.347    21819075.375    82904257.564 9-134063544.637 8
  21875316.384    21875323.041    41165889.564 9 -38656137.040 9
  21267354.248    21267358.496    34925667.941 9 -72852027.507 8
 89 11 11 16  0 59.0800000  0  3G13G12G 3
  21828294.970    21828301.627    82952737.949 8-134025767.845 8
  21891783.564    21891790.233    41252422.885 9 -38588708.657 9
  21263901.297    21263905.968    34907521.267 9 -72866167.826 9
 89 11 11 16  1 29.0800000  0  3G13G12G 3
  21837533.615    21837539.772    83001291.487 9-133987934.059 7
  21908324.647    21908331.633    41339348.603 9 -38520974.519 9
  21260482.140    21260486.846    34889550.263 9 -72880171.244 8
 89 11 11 16  1 59.0800000  0  3G13G12G 3
  21846787.312    21846794.095    83049917.505 9-133950043.795 8
  21924940.052    21924948.110    41426664.367 9 -38452936.446 9
  21257096.090    21257099.590    34871754.744 9 -72894037.946 9
 89 11 11 16  2 29.0800000  0  3G13G12G 3
  21856054.000    21856060.086    83098614.644 9-133912098.123 8
  21941629.389    21941635.904    41514365.465 9 -38384598.115 9
  21253741.811    21253746.168    34854133.294 9 -72907768.999 9
 89 11 11 16  2 59.0800000  0  3G13G12G 3
  21865334.486    21865340.811    83147381.945 9-133874097.758 8
  21958391.626    21958398.762    41602448.868 9 -38315961.894 9
  21250421.339    21250425.665    34836684.956 9 -72921365.162 8
 89 11 11 16  3 29.0800000  0  3G13G12G 3
  21874628.019    21874635.048    83196220.268 9-133836042.087 8
  21975225.723    21975232.961    41690912.662 9 -38247029.257 9
  21247134.603    21247139.015    34819410.457 9 -72934825.867 8
 89 11 11 16  3 59.0800000  0  3G13G12G 3
  21883935.232    21883942.791    83245129.196 9-133797931.379 8
  21992131.739    21992138.597    41779753.540 9 -38177802.793 9
  21243880.039    21243884.610    34802309.525 9 -72948151.348 9
 89 11 11 16  4 29.0800000  0  3G13G12G 3
  21893255.467    21893263.025    83294107.463 9-133759766.650 8
  22009109.344    22009115.579    41868967.568 9 -38108285.565 8
  21240659.947    21240662.973    34785380.485 9 -72961342.879 8
 89 11 11 16  4 59.0800000  0  3G13G12G 3
  21902589.297    21902596.283    83343153.715 9-133721548.927 7
  22026155.898    22026162.633    41958550.975 9 -38038480.485 9
  21237470.175    21237474.440    34768622.398 9 -72974401.201 8
 89 11 11 16  5 29.0800000  0  3G13G12G 3
  21911936.087    21911941.528    83392269.014 8-133683277.422 8
  22043273.497    22043280.698    42048501.626 9 -37968389.259 9
  21234314.356    21234318.652    34752035.815 9 -72987325.900 9
 89 11 11 16  5 59.0800000  0  3G13G12G 3
  21921295.846    21921301.628    83441452.620 9-133644952.705 8
  22060459.943    22060467.395    42138816.343 9 -37898014.338 9
  21231189.393    21231194.375    34735619.886 9 -73000117.622 9
 89 11 11 16  6 29.0800000  0  3G13G12G 3
  21930668.081    21930674.678    83490704.117 9-133606575.088 8
  22077714.459    22077721.932    42229492.088 9 -37827358.110 9
  21228099.380    21228103.873    34719374.763 9 -73012776.232 9
 89 11 11 16  6 59.0800000  0  3G13G12G 3
  21940052.677    21940059.659    83540022.573 9-133568145.303 7
  22095037.610    22095045.682    42320525.192 9 -37756423.427 9
  21225040.087    21225044.112    34703298.970 9 -73025302.930 8
 89 11 11 16  7 29.0800000  0  3G13G12G 3
  21949451.097    21949457.098    83589407.969 9-133529663.350 8
  22112429.451    22112435.608    42411912.773 9 -37685212.517 9
  21222013.395    21222018.360    34687392.500 9 -73037697.666 8
 89 11 11 16  7 59.0800000  0  3G13G12G 3
  21958861.080    21958867.677    83638859.906 9-133491129.564 8
  22129886.091    22129893.043    42503652.110 9 -37613727.507 9
  21219018.374    21219023.465    34671655.241 9 -73049960.561 9
 89 11 11 16  8 29.0800000  0  3G13G12G 3
  21968283.311    21968289.480    83688376.827 9-133452545.123 8
  22147409.872    22147416.228    42595738.861 9 -37541971.775 9
  21216055.742    21216060.642    34656085.218 9 -73062093.133 8
 89 11 11 16  8 59.0800000  0  3G13G12G 3
  21977719.880    21977725.805    83737958.442 9-133413910.288 9
  22164998.874    22165005.122    42688170.058 9 -37469947.657 9
  21213124.647    21213129.838    34640682.745 9 -73074095.145 9
 89 11 11 16  9 29.0800000  0  3G13G12G 3
  21987167.062    21987173.563    83787606.646 9-133375223.557 8
  22182653.861    22182661.455    42780944.117 9 -37397656.361 8
  21210226.337    21210229.357    34625448.776 9 -73085965.848 9
 89 11 11 16  9 59.0800000  0  3G13G12G 3
  21996626.987    21996634.429    83837319.446 9-133336486.500 7
  22200372.831    22200380.433    42874056.470 9 -37325101.476 8
  21207358.337    21207363.082    34610382.035 9 -73097706.271 9
 89 11 11 16 10 29.0800000  0  3G13G12G 3
  22006099.527    22006107.014    83887096.544 8-133297699.328 7
  22218154.677    22218161.971    42967503.579 9 -37252285.735 9
  21204523.085    21204528.249    34595481.371 9 -73109317.257 9
 89 11 11 16 10 59.0800000  0  3G13G12G 3
  22015583.746    22015590.403    83936936.957 9-133258862.826 8
  22236000.728    22236007.645    43061281.625 9 -37179212.124 9
  21201719.625    21201724.098    34580746.243 9 -73120799.268 8
 89 11 11 16 11 29.0800000  0  3G13G12G 3
  22025080.728    22025087.616    83986841.071 8-133219976.685 7
  22253909.060    22253915.568    43155387.605 9 -37105882.980 8
  21198947.133    21198951.634    34566176.466 9 -73132152.428 8
 89 11 11 16 11 59.0800000  0  3G13G12G 3
  22034589.415    22034595.672    84036808.837 9-133181040.939 8
  22271878.570    22271885.850    43249819.036 9 -37032300.234 9
  21196206.117    21196209.860    34551772.368 9 -73143376.491 8
 89 11 11 16 12 29.0800000  0  3G13G12G 3
  22044109.293    22044117.036    84086840.014 9-133142055.782 7
  22289909.575    22289917.521    43344572.821 8 -36958466.305 8
  21193496.173    21193501.403    34537533.391 9 -73154471.877 9
 89 11 11 16 12 59.0800000  0  3G13G12G 3
  22053642.218    22053649.904    84136933.920 9-133103021.754 8
  22308001.195    22308008.573    43439645.741 9 -36884383.705 9
  21190817.194    21190823.190    34523459.118 8 -73165438.929 9
 89 11 11 16 13 29.0800000  0  3G13G12G 3
  22063187.450    22063194.208    84187089.088 9-133063939.980 7
  22326153.154    22326160.356    43535032.979 9 -36810056.169 8
  21188170.774    21188176.380    34509547.655 9 -73176279.114 9
 89 11 11 16 13 59.0800000  0  3G13G12G 3
  22072742.672    22072750.872    84237306.389 8-133024809.790 9
  22344364.105    22344372.136    43630732.354 9 -36735485.422 9
  21185554.187    21185560.940    34495799.513 9 -73186992.044 8
 89 11 11 16 14 29.0800000  0  3G13G12G 3
  22082311.714    22082317.227    84287586.517 9-132985630.661 9
  22362634.413    22362642.060    43726741.608 9 -36660673.210 8
  21182969.526    21182974.936    34482215.397 8 -73197577.141 9
 89 11 11 16 14 59.0800000  0  3G13G12G 3
  22091891.232    22091899.305    84337927.437 9-132946404.145 8
  22380962.709    22380970.045    43823055.885 9 -36585623.324 9
  21180415.429    21180420.583    34468793.746 9 -73208035.649 9
 89 11 11 16 15 29.0800000  0  3G13G12G 3
  22101481.568    22101489.882    84388328.927 9-132907130.436 8
  22399348.380    22399355.538    43919671.716 9 -36510338.466 9
  21177891.856    21177898.328    34455533.591 8 -73218368.313 9
 89 11 11 16 15 59.0800000  0  3G13G12G 3
  22111084.523    22111092.282    84438792.072 9-132867808.695 8
  22417791.053    22417797.941    44016587.279 9 -36434820.048 9
  21175400.013    21175405.794    34442436.682 9 -73228573.777 8
 89 11 11 16 16 29.0800000  0  3G13G12G 3
  22120700.156    22120706.786    84489315.188 8-132828440.221 7
  22436289.697    22436297.171    44113797.667 9 -36359071.902 9
  21172938.717    21172944.119    34429500.178 9 -73238654.236 8
 89 11 11 16 16 59.0800000  0  3G13G12G 3
  22130324.347    22130332.492    84539898.528 9-132789024.830 8
  22454843.831    22454851.897    44211300.161 9 -36283096.141 9
  21170507.864    21170512.445    34416724.547 9 -73248609.353 8
 89 11 11 16 17 29.0800000  0  3G13G12G 3
  22139962.733    22139970.621    84590542.037 9-132749562.531 8
  22473453.458    22473461.129    44309092.122 9 -36206894.826 8
  21168107.579    21168112.448    34404110.353 9 -73258438.668 9
 89 11 11 16 17 59.0800000  0  3G13G12G 3
  22149610.878    22149618.464    84641245.465 9-132710053.570 8
  22492116.970    22492124.573    44407169.595 9 -36130471.043 9
  21165737.506    21165742.257    34391656.571 9 -73268142.992 9
 89 11 11 16 18 29.0800000  0  3G13G12G 3
  22159271.213    22159279.215    84692008.331 9-132670498.276 7
  22510833.365    22510841.389    44505528.579 9 -36053827.908 9
  21163398.415    21163403.724    34379362.308 9 -73277723.002 8
 89 11 11 16 18 59.0800000  0  3G13G12G 3
  22168942.681    22168950.870    84742830.069 9-132630897.117 8
  22529604.041    22529612.099    44604166.209 9 -35976967.650 9
  21161089.042    21161094.769    34367227.327 9 -73287178.912 9
 89 11 11 16 19 29.0800000  0  3G13G12G 3
  22178624.480    22178633.041    84793712.226 8-132591248.886 8
  22548426.887    22548435.239    44703079.961 9 -35899892.235 9
  21158810.622    21158816.519    34355252.662 9 -73296509.898 8
 89 11 11 16 19 59.0800000  0  3G13G12G 3
  22188319.730    22188326.360    84844652.708 9-132551555.195 8
  22567301.854    22567309.528    44802265.369 9 -35822605.147 9
  21156562.190    21156567.033    34343436.864 9 -73305717.092 9
 89 11 11 16 20 29.0800000  0  3G13G12G 3
  22198024.111    22198033.010    84895651.984 9-132511815.682 8
  22586227.192    22586235.489    44901719.312 9 -35745108.792 9
  21154343.828    21154349.176    34331779.332 9 -73314800.954 8
 89 11 11 16 20 59.0800000  0  3G13G12G 3
  22207739.967    22207748.026    84946709.641 9-132472030.697 9
  22605203.505    22605212.351    45001438.823 9 -35667405.534 9
  21152156.108    21152160.949    34320280.185 9 -73323761.410 8
 89 11 11 16 21 29.0800000  0  3G13G12G 3
  22217467.067    22217475.557    84997825.473 9-132432200.370 8
  22624229.033    22624238.223    45101420.495 9 -35589497.976 8
  21149997.885    21150003.048    34308939.040 9 -73332598.740 9
 89 11 11 16 21 59.0800000  0  3G13G12G 3
  22227205.932    22227213.347    85048999.145 9-132392324.973 7
  22643304.688    22643313.204    45201660.494 9 -35511389.122 9
  21147869.238    21147874.607    34297755.545 9 -73341313.233 9
 89 11 11 16 22 29.0800000  0  3G13G12G 3
  22236955.530    22236962.859    85100231.693 9-132352403.695 9
  22662428.866    22662436.997    45302156.347 9 -35433080.909 9
  21145771.878    21145776.738    34286729.942 9 -73349904.692 9
 89 11 11 16 22 59.0800000  0  3G13G12G 3
  22246715.285    22246724.232    85151522.640 9-132312436.928 8
  22681600.028    22681608.761    45402904.144 9 -35354576.395 9
  21143703.276    21143707.819    34275861.623 9 -73358373.599 8
 89 11 11 16 23 29.0800000  0  3G13G12G 3
  22256486.145    22256495.175    85202870.640 9-132272425.698 7
  22700820.290    22700828.587    45503900.137 9 -35275878.474 9
  21141665.382    21141670.151    34265149.947 9 -73366720.467 8
 89 11 11 16 23 59.0800000  0  3G13G12G 3
  22266268.107    22266277.069    85254275.726 9-132232369.966 8
  22720084.921    22720093.724    45605140.700 9 -35196989.951 9
  21139655.966    21139661.574    34254594.704 8 -73374945.418 9
 89 11 11 16 24 29.0800000  0  3G13G12G 3
  22276061.978    22276070.838    85305738.477 9-132192269.315 8
  22739397.178    22739406.796    45706623.266 9 -35117912.901 9
  21137678.179    21137682.983    34244195.974 9 -73383048.412 8
 89 11 11 16 24 59.0800000  0  3G13G12G 3
  22285865.666    22285875.227    85357259.256 9-132152123.445 8
  22758754.042    22758762.374    45808344.879 9 -35038649.560 9
  21135729.017    21135733.813    34233953.891 9 -73391029.362 9
 89 11 11 16 25 29.0800000  0  3G13G12G 3
  22295681.368    22295690.701    85408836.936 9-132111933.222 8
  22778156.613    22778164.910    45910301.637 9 -34959202.976 8
  21133809.803    21133815.517    34223867.522 9 -73398888.963 9
 89 11 11 16 25 59.0800000  0  3G13G12G 3
  22305507.947    22305516.235    85460472.225 9-132071698.114 7
  22797601.960    22797611.180    46012490.051 9 -34879575.936 9
  21131920.058    21131925.569    34213936.712 9 -73406627.354 9
 89 11 11 16 26 29.0800000  0  3G13G12G 3
  22315344.516    22315352.361    85512164.307 9-132031418.750 9
  22817091.171    22817100.513    46114906.139 9 -34799771.469 9
  21130059.364    21130065.606    34204160.491 9 -73414245.291 8
 89 11 11 16 26 59.0800000  0  3G13G12G 3
  22325191.902    22325200.644    85563913.632 9-131991094.782 8
  22836622.982    22836632.874    46217547.765 9 -34719791.248 8
  21128228.981    21128234.552    34194540.126 9 -73421741.763 9
 89 11 11 16 27 29.0800000  0  3G13G12G 3
  22335050.162    22335060.739    85615720.662 9-131950725.862 8
  22856197.886    22856207.325    46320410.937 9 -34639638.393 8
  21126427.397    21126432.982    34185075.058 9 -73429117.227 9
 89 11 11 16 27 59.0800000  0  3G13G12G 3
  22344919.756    22344927.699    85667583.277 9-131910313.611 7
  22875812.673    22875823.066    46423491.225 9 -34559316.365 8
  21124655.392    21124662.087    34175763.785 9 -73436372.847 8
 89 11 11 16 28 29.0800000  0  3G13G12G 3
  22354799.365    22354807.339    85719501.945 9-131869857.696 8
  22895470.404    22895479.473    46526784.943 9 -34478828.022 9
  21122913.166    21122919.685    34166605.683 9 -73443509.113 8
 89 11 11 16 28 59.0800000  0  3G13G12G 3
  22364690.682    22364700.270    85771479.248 9-131829356.102 8
  22915167.643    22915176.477    46630291.830 8 -34398173.594 9
  21121200.625    21121206.186    34157603.805 8 -73450523.644 9
 89 11 11 16 29 29.0800000  0  3G13G12G 3
  22374592.326    22374600.858    85823513.280 9-131788810.298 8
  22934902.376    22934912.408    46734006.569 9 -34317357.196 9
  21119516.180    21119523.323    34148755.958 9 -73457418.152 9
 89 11 11 16 29 59.0800000  0  3G13G12G 3
  22384504.963    22384513.064    85875602.562 8-131748221.456 8
  22954678.148    22954688.397    46837924.228 9 -34236382.698 9
  21117862.483    21117868.408    34140060.908 9 -73464193.577 9
 89 11 11 16 30 29.0800000  0  3G13G12G 3
  22394427.902    22394437.504    85927747.693 9-131707589.080 8
  22974491.091    22974501.783    46942042.354 9 -34155251.992 9
  21116236.526    21116242.608    34131518.896 9 -73470849.759 9
 89 11 11 16 30 59.0800000  0  3G13G12G 3
  22404361.828    22404371.548    85979949.969 9-131666912.185 7
  22994342.899    22994352.690    47046358.367 9 -34073967.073 9
  21114640.711    21114645.348    34123130.885 9 -73477385.926 8
 89 11 11 16 31 29.0800000  0  3G13G12G 3
  22414308.059    22414317.135    86032208.943 9-131626191.107 9
  23014230.442    23014239.369    47150868.568 9 -33992530.848 9
  21113073.463    21113079.542    34114896.082 9 -73483802.722 8
 89 11 11 16 31 59.0800000  0  3G13G12G 3
  22424263.193    22424272.339    86084524.804 9-131585425.711 9
  23034154.447    23034164.072    47255569.784 9 -33910945.786 9
  21111535.768    21111540.697    34106814.595 9 -73490100.043 8
 89 11 11 16 32 29.0800000  0  3G13G12G 3
  22434228.231    22434238.248    86136897.930 9-131544615.692 8
  23054114.631    23054124.572    47360459.071 9 -33829214.151 9
  21110027.575    21110032.852    34098886.799 9 -73496277.614 8
 89 11 11 16 32 59.0800000  0  3G13G12G 3
  22444206.173    22444214.774    86189327.580 8-131503761.617 8
  23074110.617    23074119.778    47465532.147 9 -33747339.309 9
  21108547.776    21108553.762    34091111.694 9 -73502336.207 9
 89 11 11 16 33 29.0800000  0  3G13G12G 3
  22454193.417    22454203.607    86241813.025 9-131462864.088 8
  23094139.180    23094148.964    47570785.168 9 -33665324.259 9
  21107097.073    21107102.855    34083488.365 9 -73508276.524 8
 89 11 11 16 33 59.0800000  0  3G13G12G 3
  22464192.107    22464201.311    86294355.464 9-131421922.122 8
  23114201.896    23114211.752    47676215.587 9 -33583171.013 8
  21105675.026    21105681.431    34076017.702 9 -73514097.886 8
 89 11 11 16 34 29.0800000  0  3G13G12G 3
  22474201.988    22474211.204    86346955.595 9-131380935.231 7
  23134298.004    23134308.711    47781820.774 8 -33500881.575 9
  21104282.938    21104289.253    34068700.224 9 -73519799.897 8
 89 11 11 16 34 59.0800000  0  3G13G12G 3
  22484222.257    22484232.062    86399611.736 8-131339904.671 8
  23154426.623    23154437.272    47887595.645 9 -33418459.897 9
  21102919.427    21102924.822    34061534.620 9 -73525383.551 8
 89 11 11 16 35 29.0800000  0  3G13G12G 3
  22494253.688    22494263.048    86452323.942 9-131298830.435 7
  23174586.771    23174597.257    47993536.627 9 -33335908.788 9
  21101584.862    21101589.920    34054520.709 9 -73530849.026 8
 89 11 11 16 35 59.0800000  0  3G13G12G 3
  22504295.278    22504304.596    86505092.641 9-131257712.193 8
  23194778.186    23194787.935    48099640.897 9 -33253230.468 9
  21100279.030    21100285.613    34047658.731 9 -73536196.104 8
 89 11 11 16 36 29.0800000  0  3G13G12G 3
  22514347.885    22514358.232    86557919.090 9-131216548.936 7
  23215000.158    23215010.335    48205905.908 9 -33170426.897 9
  21099002.221    21099008.685    34040949.271 9 -73541424.331 8
 89 11 11 16 36 59.0800000  0  3G13G12G 3
  22524411.541    22524419.586    86610802.428 9-131175341.332 9
  23235252.127    23235262.013    48312327.732 9 -33087501.125 9
  21097754.819    21097759.838    34034391.923 9 -73546534.033 9
 89 11 11 16 37 29.0800000  0  3G13G12G 3
  22534485.897    22534496.060    86663743.023 8-131134089.132 8
  23255531.551    23255542.480    48418902.890 9 -33004455.892 9
  21096535.619    21096541.834    34027986.614 9 -73551525.275 9
 89 11 11 16 37 59.0800000  0  3G13G12G 3
  22544571.045    22544581.047    86716741.190 8-131092792.067 7
  23275841.010    23275853.011    48525628.820 8 -32921293.165 9
  21095345.568    21095351.135    34021733.407 9 -73556397.987 8
 89 11 11 16 38 29.0800000  0  3G13G12G 3
  22554666.580    22554677.902    86769796.493 9-131051450.468 8
  23296177.955    23296190.700    48632501.244 8 -32838016.304 9
  21094184.917    21094189.985    34015631.977 9 -73561152.432 8
 89 11 11 16 38 59.0800000  0  3G13G12G 3
  22564774.965    22564784.439    86822909.080 8-131010064.245 8
  23316543.284    23316555.020    48739516.607 9 -32754628.043 9
  21093052.017    21093058.510    34009682.097 9 -73565788.785 9
 89 11 11 16 39 29.0800000  0  3G13G12G 3
  22574892.596    22574902.056    86876078.343 8-130968633.847 8
  23336934.482    23336947.107    48846671.095 9 -32671131.406 9
  21091949.151    21091955.178    34003883.298 9 -73570307.422 9
 89 11 11 16 39 59.0800000  0  3G13G12G 3
  22585021.813    22585031.605    86929305.671 9-130927158.240 8
  23357351.553    23357363.139    48953962.498 9 -32587528.080 9
  21090875.414    21090881.788    33998236.804 9 -73574707.364 9
 89 11 11 16 40 29.0800000  0  3G13G12G 3
  22595161.850    22595170.425    86982590.297 9-130885637.960 7
  23377794.344    23377805.687    49061386.611 9 -32503821.331 9
  21089829.584    21089834.652    33992741.343 9 -73578989.637 9
 89 11 11 16 40 59.0800000  0  3G13G12G 3
  22605313.106    22605323.354    87035933.087 9-130844072.352 7
  23398261.909    23398272.554    49168940.202 9 -32420013.698 9
  21088813.124    21088818.615    33987397.585 9 -73583153.704 9
 89 11 11 16 41 29.0800000  0  3G13G12G 3
  22615474.434    22615484.656    87089333.664 9-130802461.747 7
  23418752.216    23418764.423    49276620.178 9 -32336107.600 9
  21087824.020    21087830.061    33982205.270 9 -73587199.755 9
 89 11 11 16 41 59.0800000  0  3G13G12G 3
  22625647.097    22625657.601    87142791.698 9-130760806.348 8
  23439266.918    23439278.906    49384422.562 9 -32252106.135 8
  21086865.328    21086871.509    33977164.141 9 -73591128.003 9
 89 11 11 16 42 29.0800000  0  3G13G12G 3
  22635830.147    22635841.969    87196308.708 9-130719105.013 8
  23459804.329    23459815.816    49492345.218 9 -32168010.972 9
  21085934.720    21085940.727    33972275.236 9 -73594937.616 9
 89 11 11 16 42 59.0800000  0  3G13G12G 3
  22646026.821    22646035.852    87249883.607 9-130677358.561 7
  23480363.977    23480375.598    49600383.666 9 -32083825.557 9
  21085033.314    21085039.300    33967537.390 9 -73598629.541 9
 89 11 11 16 43 29.0800000  0  3G13G12G 3
  22656232.937    22656242.415    87303517.319 9-130635566.301 8
  23500944.730    23500956.351    49708534.777 9 -31999552.333 8
  21084161.541    21084167.218    33962951.106 9 -73602203.350 8
 89 11 11 16 43 59.0800000  0  3G13G12G 3
  22666449.987    22666460.436    87357209.252 9-130593728.684 8
  23521546.431    23521557.174    49816794.624 9 -31915194.395 8
  21083317.062    21083323.853    33958516.244 9 -73605659.182 8
 89 11 11 16 44 29.0800000  0  3G13G12G 3
  22676678.654    22676689.317    87410960.782 8-130551844.619 8
  23542167.437    23542179.509    49925161.200 8 -31830753.305 8
  21082501.732    21082508.793    33954233.702 9 -73608996.312 9
 89 11 11 16 44 59.0800000  0  3G13G12G 3
  22686918.482    22686930.104    87464771.429 9-130509914.474 8
  23562808.612    23562820.734    50033630.897 9 -31746231.869 8
  21081715.798    21081723.104    33950103.352 9 -73612214.862 9
 89 11 11 16 45 29.0800000  0  3G13G12G 3
  22697169.639    22697180.242    87518640.590 9-130467938.770 8
  23583469.689    23583480.831    50142198.949 8 -31661633.792 8
  21080958.363    21080965.357    33946123.720 9 -73615315.948 9
 89 11 11 16 45 59.0800000  0  3G13G12G 3
  22707431.845    22707442.748    87572569.046 9-130425916.846 9
  23604147.258    23604159.947    50250863.089 9 -31576960.848 9
  21080229.923    21080237.032    33942295.915 9 -73618298.732 8
 89 11 11 16 46 29.0800000  0  3G13G12G 3
  22717705.966    22717717.882    87626556.761 9-130383848.747 8
  23624843.221    23624856.045    50359619.531 9 -31492215.984 9
  21079531.071    21079538.350    33938619.830 8 -73621163.290 8
 89 11 11 16 46 59.0800000  0  3G13G12G 3
  22727990.796    22728001.476    87680604.294 9-130341734.027 7
  23645556.185    23645568.673    50468465.351 9 -31407401.490 8
  21078860.313    21078867.057    33935095.489 9 -73623909.599 8
 89 11 11 16 47 29.0800000  0  3G13G12G 3
  22738287.495    22738298.300    87734712.065 9-130299572.378 8
  23666285.561    23666297.993    50577396.849 9 -31322520.212 9
  21078218.174    21078225.940    33931723.462 9 -73626537.239 8
 89 11 11 16 47 59.0800000  0  3G13G12G 3
  22748595.938    22748606.100    87788881.342 9-130257362.795 8
  23687029.511    23687043.895    50686411.553 9 -31237574.141 8
  21077606.407    21077613.024    33928504.453 9 -73629045.636 8
 89 11 11 16 48 29.0800000  0  3G13G12G 3
  22758916.595    22758926.279    87843110.950 6-130215106.190 8
  23707790.773    23707804.301    50795504.929 9 -31152566.748 8
  21077022.023    21077029.322    33925437.157 9 -73631435.812 8
 89 11 11 16 48 59.0800000  0  3G13G12G 3
  22769247.431    22769258.449    87897401.362 8-130172802.221 8
  23728565.402    23728578.342    50904674.119 9 -31067500.286 9
  21076468.127    21076474.377    33922522.116 9 -73633707.356 8
 89 11 11 16 49 29.0800000  0  3G13G12G 3
  22779590.109    22779601.837    87951752.717 9-130130450.770 8
  23749354.668    23749366.878    51013915.891 9 -30982377.263 9
  21075942.591    21075949.334    33919759.542 9 -73635860.091 8
 89 11 11 16 49 59.0800000  0  3G13G12G 3
  22789945.172    22789955.739    88006164.468 9-130088052.245 8
  23770155.163    23770168.373    51123226.422 9 -30897200.682 9
  21075446.704    21075451.887    33917149.126 9 -73637894.263 8
 89 11 11 16 50 29.0800000  0  3G13G12G 3
  22800310.722    22800322.755    88060637.751 8-130045605.776 8
  23790969.357    23790981.995    51232602.615 9 -30811972.934 9
  21074977.220    21074985.089    33914691.297 9 -73639809.537 8
 89 11 11 16 50 59.0800000  0  3G13G12G 3
  22810688.976    22810699.650    88115173.019 9-130003111.000 8
  23811796.226    23811808.523    51342042.097 9 -30726695.887 9
  21074539.134    21074546.463    33912386.788 9 -73641605.327 8
 89 11 11 16 51 29.0800000  0  3G13G12G 3
  22821077.701    22821088.357    88169769.865 9-129960568.243 9
  23832632.835    23832645.631    51451540.607 9 -30641372.826 9
  21074129.936    21074137.433    33910234.818 9 -73643282.275 8
 89 11 11 16 51 59.0800000  0  3G13G12G 3
  22831478.931    22831491.152    88224429.450 9-129917976.600 8
  23853480.706    23853494.104    51561095.388 9 -30556005.930 9
  21073750.444    21073757.063    33908236.510 9 -73644839.494 8
 89 11 11 16 52 29.0800000  0  3G13G12G 3
  22841892.685    22841904.054    88279152.250 8-129875335.711 8
  23874338.565    23874352.435    51670703.146 9 -30470597.764 9
  21073398.998    21073405.407    33906391.820 9 -73646277.002 8
 89 11 11 16 52 59.0800000  0  3G13G12G 3
  22852318.349    22852330.883    88333937.018 8-129832646.524 8
  23895205.790    23895219.371    51780359.346 9 -30385151.861 9
  21073077.548    21073083.933    33904700.263 9 -73647595.187 8
 89 11 11 16 53 29.0800000  0  3G13G12G 3
  22862756.298    22862767.458    88388784.193 9-129789908.706 8
  23916082.613    23916096.318    51890060.802 9 -30299670.704 9
  21072784.480    21072791.588    33903161.680 9 -73648794.177 8
 89 11 11 16 53 59.0800000  0  3G13G12G 3
  22873205.093    22873216.087    88443695.162 8-129747121.183 8
  23936966.143    23936979.904    51999804.967 9 -30214156.265 9
  21072520.144    21072528.256    33901777.217 9 -73649873.070 8
 89 11 11 16 54 29.0800000  0  3G13G12G 3
  22883667.220    22883677.640    88498669.929 9-129704283.943 8
  23957857.163    23957870.932    52109588.745 9 -30128610.957 9
  21072287.362    21072293.344    33900546.981 8 -73650831.776 8
 89 11 11 16 54 59.0800000  0  3G13G12G 3
  22894140.255    22894151.816    88553709.081 8-129661396.547 7
  23978756.095    23978770.199    52219409.003 9 -30043037.237 9
  21072081.645    21072089.833    33899471.307 9 -73651670.060 8
 89 11 11 16 55 29.0800000  0  3G13G12G 3
  22904626.158    22904638.633    88608812.328 9-129618459.193 8
  23999659.722    23999674.399    52329261.607 9 -29957438.336 9
  21071907.294    21071913.858    33898549.982 9 -73652388.048 8
 89 11 11 16 55 59.0800000  0  3G13G12G 3
  22915125.114    22915136.441    88663980.079 8-129575471.574 9
  24020570.960    24020585.938    52439144.081 9 -29871816.147 9
  21071760.964    21071768.068    33897783.346 9 -73652985.509 9
 89 11 11 16 56 29.0800000  0  3G13G12G 3
  22925633.744    22925647.670    88719212.390 8-129532433.679 8
  24041485.920    24041501.583    52549052.483 8 -29786173.787 8
  21071644.492    21071652.098    33897171.288 9 -73653462.503 8
 89 11 11 16 56 59.0800000  0  3G13G12G 3
  22936157.887    22936170.478    88774509.316 8-129489345.419 8
  24062406.350    24062420.499    52658983.023 8 -29700514.174 8
  21071557.414    21071565.317    33896713.645 9 -73653819.181 8
 89 11 11 16 57 29.0800000  0  3G13G12G 3
  22946693.746    22946705.868    88829872.273 9-129446205.709 9
  24083329.488    24083343.587    52768934.300 8 -29614838.435 9
  21071499.920    21071507.877    33896411.940 9 -73654054.343 8
 89 11 11 16 57 59.0800000  0  3G13G12G 3
  22957241.992    22957253.873    88885301.686 9-129403014.210 8
  24104255.372    24104270.902    52878902.712 9 -29529149.347 8
  21071473.607    21071479.810    33896266.872 9 -73654167.447 8
 89 11 11 16 58 29.0800000  0  3G13G12G 3
  22967801.687    22967813.953    88940796.829 9-129359771.512 8
  24125184.628    24125200.543    52988884.090 8 -29443450.149 8
  21071475.872    21071481.351    33896277.222 9 -73654159.453 7
 89 11 11 16 58 59.0800000  0  3G13G12G 3
  22978375.957    22978387.335    88996358.722 9-129316476.783 8
  24146115.519    24146131.057    53098875.612 9 -29357743.077 8
  21071507.615    21071513.236    33896443.700 9 -73654029.786 9
 89 11 11 16 59 29.0800000  0  3G13G12G 3
  22988960.584    22988974.181    89051987.205 8-129273130.167 7
  24167048.437    24167063.386    53208873.254 9 -29272031.220 7
  21071568.588    21071575.762    33896766.192 9 -73653778.574 9
 89 11 11 16 59 59.0800000  0  3G13G12G 3
  22999560.490    22999572.849    89107682.289 9-129229731.676 8
  24187981.560    24187996.290    53318874.158 9 -29186316.840 8
  21071659.827    21071666.932    33897245.057 9 -73653405.507 8
 89 11 11 17  0 29.0800000  0  3G13G12G 3
  23010171.176    23010183.935    89163444.923 8-129186280.549 7
  24208913.684    24208929.034    53428875.706 9 -29100601.966 8
  21071781.488    21071787.239    33897881.166 9 -73652909.898 8
 89 11 11 17  0 59.0800000  0  3G13G12G 3
  23020797.064    23020809.197    89219276.434 9-129142775.742 8
  24229846.023    24229862.667    53538875.025 9 -29014888.840 8
  21071931.421    21071938.463    33898675.032 9 -73652291.395 8
 89 11 11 17  1 29.0800000  0  3G13G12G 3
  23031433.227    23031446.777    89275175.970 9-129099217.942 8
  24250778.131    24250794.520    53648868.330 9 -28929180.396 8
  21072112.930    21072119.703    33899626.464 9 -73651550.091 8
 89 11 11 17  1 59.0800000  0  3G13G12G 3
  23042083.794    23042095.924    89331143.985 8-129055606.794 7
  24271709.009    24271724.182    53758852.427 9 -28843479.154 8
  21072324.796    21072330.521    33900735.980 9 -73650685.617 8
 89 11 11 17  2 29.0800000  0  3G13G12G 3
  23052747.738    23052760.362    89387181.262 9-129011941.652 8
  24292634.802    24292651.791    53868824.082 9 -28757787.612 9
  21072565.808    21072571.449    33902003.940 9 -73649697.667 8
 89 11 11 17  2 59.0800000  0  3G13G12G 3
  23063425.070    23063437.609    89443287.796 9-128968222.555 8
  24313559.469    24313575.941    53978779.725 9 -28672108.535 8
  21072836.890    21072844.258    33903430.142 9 -73648586.435 8
 89 11 11 17  3 29.0800000  0  3G13G12G 3
  23074115.702    23074128.139    89499463.225 9-128924449.764 7
  24334480.745    24334498.119    54088715.756 9 -28586444.764 9
  21073138.185    21073145.614    33905014.669 9 -73647351.827 9
 89 11 11 17  3 59.0800000  0  3G13G12G 3
  23084818.400    23084831.476    89555708.715 9-128880622.363 8
  24355398.159    24355413.460    54198629.799 9 -28500798.128 9
  21073469.458    21073476.775    33906758.226 9 -73645993.275 8
 89 11 11 17  4 29.0800000  0  3G13G12G 3
  23095535.565    23095548.289    89612025.856 9-128836739.139 8
  24376308.876    24376326.536    54308519.879 9 -28415170.166 9
  21073832.132    21073839.448    33908662.707 9 -73644509.347 7
